owner,sensor,date,latitude,longitude,vertical_datum,sea_water_practical_salinity,qcFlag 
COMPS,ioos:station:USF.COMPS:EGK:1,2009-02-01T00:00:00Z,27.6010,-82.7510,1.0,38.139,1111122 
COMPS,ioos:station:USF.COMPS:EGK:1,2009-02-01T00:06:00Z,27.6010,-82.7510,1.0,38.079,1111122 
COMPS,ioos:station:USF.COMPS:EGK:1,2009-02-01T00:12:00Z,27.6010,-82.7510,1.0,37.838,1111122 
COMPS,ioos:station:USF.COMPS:EGK:1,2009-02-01T00:18:00Z,27.6010,-82.7510,1.0,37.812,1111122 
COMPS,ioos:station:USF.COMPS:EGK:1,2009-02-01T00:24:00Z,27.6010,-82.7510,1.0,38.141,1111122 
COMPS,ioos:station:USF.COMPS:EGK:1,2009-02-01T00:30:00Z,27.6010,-82.7510,1.0,38.334,1111122 
COMPS,ioos:station:USF.COMPS:EGK:1,2009-02-01T00:36:00Z,27.6010,-82.7510,1.0,38.418,1111122 
COMPS,ioos:station:USF.COMPS:EGK:1,2009-02-01T00:42:00Z,27.6010,-82.7510,1.0,38.366,1111122 
COMPS,ioos:station:USF.COMPS:EGK:1,2009-02-01T00:48:00Z,27.6010,-82.7510,1.0,38.358,1111122 
COMPS,ioos:station:USF.COMPS:EGK:1,2009-02-01T00:54:00Z,27.6010,-82.7510,1.0,38.368,1111122 
COMPS,ioos:station:USF.COMPS:EGK:1,2009-02-01T01:00:00Z,27.6010,-82.7510,1.0,38.196,1111122 
COMPS,ioos:station:USF.COMPS:EGK:1,2009-02-01T01:06:00Z,27.6010,-82.7510,1.0,38.398,1111122 
COMPS,ioos:station:USF.COMPS:EGK:1,2009-02-01T01:12:00Z,27.6010,-82.7510,1.0,38.4,1111122 
COMPS,ioos:station:USF.COMPS:EGK:1,2009-02-01T01:18:00Z,27.6010,-82.7510,1.0,38.429,1111122 
COMPS,ioos:station:USF.COMPS:EGK:1,2009-02-01T01:24:00Z,27.6010,-82.7510,1.0,38.411,1111122 
COMPS,ioos:station:USF.COMPS:EGK:1,2009-02-01T01:30:00Z,27.6010,-82.7510,1.0,38.41,1111122 
COMPS,ioos:station:USF.COMPS:EGK:1,2009-02-01T01:36:00Z,27.6010,-82.7510,1.0,38.401,1111122 
COMPS,ioos:station:USF.COMPS:EGK:1,2009-02-01T01:42:00Z,27.6010,-82.7510,1.0,38.373,1111122 
COMPS,ioos:station:USF.COMPS:EGK:1,2009-02-01T01:48:00Z,27.6010,-82.7510,1.0,38.365,1111122 
COMPS,ioos:station:USF.COMPS:EGK:1,2009-02-01T01:54:00Z,27.6010,-82.7510,1.0,38.357,1111122 
COMPS,ioos:station:USF.COMPS:EGK:1,2009-02-01T02:00:00Z,27.6010,-82.7510,1.0,38.459,1111122 
COMPS,ioos:station:USF.COMPS:EGK:1,2009-02-01T02:06:00Z,27.6010,-82.7510,1.0,38.514,1111122 
COMPS,ioos:station:USF.COMPS:EGK:1,2009-02-01T02:12:00Z,27.6010,-82.7510,1.0,38.505,1111122 
COMPS,ioos:station:USF.COMPS:EGK:1,2009-02-01T02:18:00Z,27.6010,-82.7510,1.0,38.515,1111122 
COMPS,ioos:station:USF.COMPS:EGK:1,2009-02-01T02:24:00Z,27.6010,-82.7510,1.0,38.589,1111122 
COMPS,ioos:station:USF.COMPS:EGK:1,2009-02-01T02:30:00Z,27.6010,-82.7510,1.0,38.626,1111122 
COMPS,ioos:station:USF.COMPS:EGK:1,2009-02-01T02:36:00Z,27.6010,-82.7510,1.0,38.562,1111122 
COMPS,ioos:station:USF.COMPS:EGK:1,2009-02-01T02:42:00Z,27.6010,-82.7510,1.0,38.581,1111122 
COMPS,ioos:station:USF.COMPS:EGK:1,2009-02-01T02:48:00Z,27.6010,-82.7510,1.0,38.315,1111122 
COMPS,ioos:station:USF.COMPS:EGK:1,2009-02-01T02:54:00Z,27.6010,-82.7510,1.0,38.581,1111122 
COMPS,ioos:station:USF.COMPS:EGK:1,2009-02-01T03:00:00Z,27.6010,-82.7510,1.0,38.545,1111122 
COMPS,ioos:station:USF.COMPS:EGK:1,2009-02-01T03:06:00Z,27.6010,-82.7510,1.0,38.573,1111122 
COMPS,ioos:station:USF.COMPS:EGK:1,2009-02-01T03:12:00Z,27.6010,-82.7510,1.0,38.573,1111122 
COMPS,ioos:station:USF.COMPS:EGK:1,2009-02-01T03:18:00Z,27.6010,-82.7510,1.0,38.554,1111122 
COMPS,ioos:station:USF.COMPS:EGK:1,2009-02-01T03:24:00Z,27.6010,-82.7510,1.0,38.518,1111122 
COMPS,ioos:station:USF.COMPS:EGK:1,2009-02-01T03:30:00Z,27.6010,-82.7510,1.0,38.518,1111122 
COMPS,ioos:station:USF.COMPS:EGK:1,2009-02-01T03:36:00Z,27.6010,-82.7510,1.0,38.509,1111122 
COMPS,ioos:station:USF.COMPS:EGK:1,2009-02-01T03:42:00Z,27.6010,-82.7510,1.0,38.537,1111122 
COMPS,ioos:station:USF.COMPS:EGK:1,2009-02-01T03:48:00Z,27.6010,-82.7510,1.0,38.528,1111122 
COMPS,ioos:station:USF.COMPS:EGK:1,2009-02-01T03:54:00Z,27.6010,-82.7510,1.0,38.189,1111122 
COMPS,ioos:station:USF.COMPS:EGK:1,2009-02-01T04:00:00Z,27.6010,-82.7510,1.0,38.556,1111122 
COMPS,ioos:station:USF.COMPS:EGK:1,2009-02-01T04:06:00Z,27.6010,-82.7510,1.0,38.631,1111122 
COMPS,ioos:station:USF.COMPS:EGK:1,2009-02-01T04:12:00Z,27.6010,-82.7510,1.0,38.65,1111122 
COMPS,ioos:station:USF.COMPS:EGK:1,2009-02-01T04:18:00Z,27.6010,-82.7510,1.0,38.66,1111122 
COMPS,ioos:station:USF.COMPS:EGK:1,2009-02-01T04:24:00Z,27.6010,-82.7510,1.0,38.66,1111122 
COMPS,ioos:station:USF.COMPS:EGK:1,2009-02-01T04:30:00Z,27.6010,-82.7510,1.0,38.607,1111122 
COMPS,ioos:station:USF.COMPS:EGK:1,2009-02-01T04:36:00Z,27.6010,-82.7510,1.0,38.725,1111122 
COMPS,ioos:station:USF.COMPS:EGK:1,2009-02-01T04:42:00Z,27.6010,-82.7510,1.0,38.691,1111122 
COMPS,ioos:station:USF.COMPS:EGK:1,2009-02-01T04:48:00Z,27.6010,-82.7510,1.0,38.577,1111122 
COMPS,ioos:station:USF.COMPS:EGK:1,2009-02-01T04:54:00Z,27.6010,-82.7510,1.0,38.529,1111122 
COMPS,ioos:station:USF.COMPS:EGK:1,2009-02-01T05:00:00Z,27.6010,-82.7510,1.0,38.466,1111122 
COMPS,ioos:station:USF.COMPS:EGK:1,2009-02-01T05:06:00Z,27.6010,-82.7510,1.0,38.403,1111122 
COMPS,ioos:station:USF.COMPS:EGK:1,2009-02-01T05:12:00Z,27.6010,-82.7510,1.0,38.355,1111122 
COMPS,ioos:station:USF.COMPS:EGK:1,2009-02-01T05:18:00Z,27.6010,-82.7510,1.0,38.673,1111122 
COMPS,ioos:station:USF.COMPS:EGK:1,2009-02-01T05:24:00Z,27.6010,-82.7510,1.0,38.625,1111122 
COMPS,ioos:station:USF.COMPS:EGK:1,2009-02-01T05:30:00Z,27.6010,-82.7510,1.0,38.608,1111122 
COMPS,ioos:station:USF.COMPS:EGK:1,2009-02-01T05:36:00Z,27.6010,-82.7510,1.0,38.565,1111122 
COMPS,ioos:station:USF.COMPS:EGK:1,2009-02-01T05:42:00Z,27.6010,-82.7510,1.0,38.556,1111122 
COMPS,ioos:station:USF.COMPS:EGK:1,2009-02-01T05:48:00Z,27.6010,-82.7510,1.0,38.577,1111122 
COMPS,ioos:station:USF.COMPS:EGK:1,2009-02-01T05:54:00Z,27.6010,-82.7510,1.0,38.594,1111122 
COMPS,ioos:station:USF.COMPS:EGK:1,2009-02-01T06:00:00Z,27.6010,-82.7510,1.0,38.136,1111122 
COMPS,ioos:station:USF.COMPS:EGK:1,2009-02-01T06:06:00Z,27.6010,-82.7510,1.0,38.227,1111122 
COMPS,ioos:station:USF.COMPS:EGK:1,2009-02-01T06:12:00Z,27.6010,-82.7510,1.0,38.594,1111122 
COMPS,ioos:station:USF.COMPS:EGK:1,2009-02-01T06:18:00Z,27.6010,-82.7510,1.0,38.621,1111122 
COMPS,ioos:station:USF.COMPS:EGK:1,2009-02-01T06:24:00Z,27.6010,-82.7510,1.0,38.568,1111122 
COMPS,ioos:station:USF.COMPS:EGK:1,2009-02-01T06:30:00Z,27.6010,-82.7510,1.0,38.695,1111122 
COMPS,ioos:station:USF.COMPS:EGK:1,2009-02-01T06:36:00Z,27.6010,-82.7510,1.0,38.768,1111122 
COMPS,ioos:station:USF.COMPS:EGK:1,2009-02-01T06:42:00Z,27.6010,-82.7510,1.0,38.757,1111122 
COMPS,ioos:station:USF.COMPS:EGK:1,2009-02-01T06:48:00Z,27.6010,-82.7510,1.0,38.887,1111122 
COMPS,ioos:station:USF.COMPS:EGK:1,2009-02-01T06:54:00Z,27.6010,-82.7510,1.0,38.803,1111122 
COMPS,ioos:station:USF.COMPS:EGK:1,2009-02-01T07:00:00Z,27.6010,-82.7510,1.0,38.729,1111122 
COMPS,ioos:station:USF.COMPS:EGK:1,2009-02-01T07:06:00Z,27.6010,-82.7510,1.0,38.768,1111122 
COMPS,ioos:station:USF.COMPS:EGK:1,2009-02-01T07:12:00Z,27.6010,-82.7510,1.0,38.781,1111122 
COMPS,ioos:station:USF.COMPS:EGK:1,2009-02-01T07:18:00Z,27.6010,-82.7510,1.0,38.74,1111122 
COMPS,ioos:station:USF.COMPS:EGK:1,2009-02-01T07:24:00Z,27.6010,-82.7510,1.0,38.258,1111122 
COMPS,ioos:station:USF.COMPS:EGK:1,2009-02-01T07:30:00Z,27.6010,-82.7510,1.0,38.978,1111122 
COMPS,ioos:station:USF.COMPS:EGK:1,2009-02-01T07:36:00Z,27.6010,-82.7510,1.0,38.954,1111122 
COMPS,ioos:station:USF.COMPS:EGK:1,2009-02-01T07:42:00Z,27.6010,-82.7510,1.0,38.836,1111122 
COMPS,ioos:station:USF.COMPS:EGK:1,2009-02-01T07:48:00Z,27.6010,-82.7510,1.0,38.61,1111122 
COMPS,ioos:station:USF.COMPS:EGK:1,2009-02-01T07:54:00Z,27.6010,-82.7510,1.0,38.692,1111122 
COMPS,ioos:station:USF.COMPS:EGK:1,2009-02-01T08:00:00Z,27.6010,-82.7510,1.0,38.906,1111122 
COMPS,ioos:station:USF.COMPS:EGK:1,2009-02-01T08:06:00Z,27.6010,-82.7510,1.0,38.866,1111122 
COMPS,ioos:station:USF.COMPS:EGK:1,2009-02-01T08:12:00Z,27.6010,-82.7510,1.0,38.902,1111122 
COMPS,ioos:station:USF.COMPS:EGK:1,2009-02-01T08:18:00Z,27.6010,-82.7510,1.0,38.865,1111122 
COMPS,ioos:station:USF.COMPS:EGK:1,2009-02-01T08:24:00Z,27.6010,-82.7510,1.0,38.856,1111122 
COMPS,ioos:station:USF.COMPS:EGK:1,2009-02-01T08:30:00Z,27.6010,-82.7510,1.0,38.839,1111122 
COMPS,ioos:station:USF.COMPS:EGK:1,2009-02-01T08:36:00Z,27.6010,-82.7510,1.0,38.84,1111122 
COMPS,ioos:station:USF.COMPS:EGK:1,2009-02-01T08:42:00Z,27.6010,-82.7510,1.0,38.869,1111122 
COMPS,ioos:station:USF.COMPS:EGK:1,2009-02-01T08:48:00Z,27.6010,-82.7510,1.0,38.964,1111122 
COMPS,ioos:station:USF.COMPS:EGK:1,2009-02-01T08:54:00Z,27.6010,-82.7510,1.0,38.991,1111122 
COMPS,ioos:station:USF.COMPS:EGK:1,2009-02-01T09:00:00Z,27.6010,-82.7510,1.0,38.759,1111122 
COMPS,ioos:station:USF.COMPS:EGK:1,2009-02-01T09:06:00Z,27.6010,-82.7510,1.0,39.074,1111122 
COMPS,ioos:station:USF.COMPS:EGK:1,2009-02-01T09:12:00Z,27.6010,-82.7510,1.0,39.035,1111122 
COMPS,ioos:station:USF.COMPS:EGK:1,2009-02-01T09:18:00Z,27.6010,-82.7510,1.0,38.986,1111122 
COMPS,ioos:station:USF.COMPS:EGK:1,2009-02-01T09:24:00Z,27.6010,-82.7510,1.0,38.986,1111122 
COMPS,ioos:station:USF.COMPS:EGK:1,2009-02-01T09:30:00Z,27.6010,-82.7510,1.0,38.976,1111122 
COMPS,ioos:station:USF.COMPS:EGK:1,2009-02-01T09:36:00Z,27.6010,-82.7510,1.0,38.938,1111122 
COMPS,ioos:station:USF.COMPS:EGK:1,2009-02-01T09:42:00Z,27.6010,-82.7510,1.0,38.929,1111122 
COMPS,ioos:station:USF.COMPS:EGK:1,2009-02-01T09:48:00Z,27.6010,-82.7510,1.0,38.94,1111122 
COMPS,ioos:station:USF.COMPS:EGK:1,2009-02-01T09:54:00Z,27.6010,-82.7510,1.0,38.989,1111122 
COMPS,ioos:station:USF.COMPS:EGK:1,2009-02-01T10:00:00Z,27.6010,-82.7510,1.0,39.033,1111122 
COMPS,ioos:station:USF.COMPS:EGK:1,2009-02-01T10:06:00Z,27.6010,-82.7510,1.0,39.029,1111122 
COMPS,ioos:station:USF.COMPS:EGK:1,2009-02-01T10:12:00Z,27.6010,-82.7510,1.0,39.01,1111122 
COMPS,ioos:station:USF.COMPS:EGK:1,2009-02-01T10:18:00Z,27.6010,-82.7510,1.0,39.01,1111122 
COMPS,ioos:station:USF.COMPS:EGK:1,2009-02-01T10:24:00Z,27.6010,-82.7510,1.0,39.045,1111122 
COMPS,ioos:station:USF.COMPS:EGK:1,2009-02-01T10:30:00Z,27.6010,-82.7510,1.0,39.034,1111122 
COMPS,ioos:station:USF.COMPS:EGK:1,2009-02-01T10:36:00Z,27.6010,-82.7510,1.0,39.024,1111122 
COMPS,ioos:station:USF.COMPS:EGK:1,2009-02-01T10:42:00Z,27.6010,-82.7510,1.0,38.977,1111122 
COMPS,ioos:station:USF.COMPS:EGK:1,2009-02-01T10:48:00Z,27.6010,-82.7510,1.0,38.996,1111122 
COMPS,ioos:station:USF.COMPS:EGK:1,2009-02-01T10:54:00Z,27.6010,-82.7510,1.0,38.543,1111122 
COMPS,ioos:station:USF.COMPS:EGK:1,2009-02-01T11:00:00Z,27.6010,-82.7510,1.0,39.034,1111122 
COMPS,ioos:station:USF.COMPS:EGK:1,2009-02-01T11:06:00Z,27.6010,-82.7510,1.0,39.023,1111122 
COMPS,ioos:station:USF.COMPS:EGK:1,2009-02-01T11:12:00Z,27.6010,-82.7510,1.0,38.651,1111122 
COMPS,ioos:station:USF.COMPS:EGK:1,2009-02-01T11:18:00Z,27.6010,-82.7510,1.0,38.991,1111122 
COMPS,ioos:station:USF.COMPS:EGK:1,2009-02-01T11:24:00Z,27.6010,-82.7510,1.0,39.102,1111122 
COMPS,ioos:station:USF.COMPS:EGK:1,2009-02-01T11:30:00Z,27.6010,-82.7510,1.0,39.122,1111122 
COMPS,ioos:station:USF.COMPS:EGK:1,2009-02-01T11:36:00Z,27.6010,-82.7510,1.0,38.807,1111122 
COMPS,ioos:station:USF.COMPS:EGK:1,2009-02-01T11:42:00Z,27.6010,-82.7510,1.0,38.522,1111122 
COMPS,ioos:station:USF.COMPS:EGK:1,2009-02-01T11:48:00Z,27.6010,-82.7510,1.0,39.088,1111122 
COMPS,ioos:station:USF.COMPS:EGK:1,2009-02-01T11:54:00Z,27.6010,-82.7510,1.0,38.108,1111122 
COMPS,ioos:station:USF.COMPS:EGK:1,2009-02-01T12:00:00Z,27.6010,-82.7510,1.0,37.868,1111122 
COMPS,ioos:station:USF.COMPS:EGK:1,2009-02-01T12:06:00Z,27.6010,-82.7510,1.0,38.212,1111122 
COMPS,ioos:station:USF.COMPS:EGK:1,2009-02-01T12:12:00Z,27.6010,-82.7510,1.0,37.749,1111122 
COMPS,ioos:station:USF.COMPS:EGK:1,2009-02-01T12:18:00Z,27.6010,-82.7510,1.0,37.298,1111122 
COMPS,ioos:station:USF.COMPS:EGK:1,2009-02-01T12:24:00Z,27.6010,-82.7510,1.0,37.27,1111122 
COMPS,ioos:station:USF.COMPS:EGK:1,2009-02-01T12:30:00Z,27.6010,-82.7510,1.0,37.299,1111122 
COMPS,ioos:station:USF.COMPS:EGK:1,2009-02-01T12:36:00Z,27.6010,-82.7510,1.0,38.037,1111122 
COMPS,ioos:station:USF.COMPS:EGK:1,2009-02-01T12:42:00Z,27.6010,-82.7510,1.0,38.397,1111122 
COMPS,ioos:station:USF.COMPS:EGK:1,2009-02-01T12:48:00Z,27.6010,-82.7510,1.0,38.388,1111122 
COMPS,ioos:station:USF.COMPS:EGK:1,2009-02-01T12:54:00Z,27.6010,-82.7510,1.0,37.463,1111122 
COMPS,ioos:station:USF.COMPS:EGK:1,2009-02-01T13:00:00Z,27.6010,-82.7510,1.0,37.361,1111122 
COMPS,ioos:station:USF.COMPS:EGK:1,2009-02-01T13:06:00Z,27.6010,-82.7510,1.0,37.13,1111122 
COMPS,ioos:station:USF.COMPS:EGK:1,2009-02-01T13:12:00Z,27.6010,-82.7510,1.0,37.185,1111122 
COMPS,ioos:station:USF.COMPS:EGK:1,2009-02-01T13:18:00Z,27.6010,-82.7510,1.0,37.029,1111122 
COMPS,ioos:station:USF.COMPS:EGK:1,2009-02-01T13:24:00Z,27.6010,-82.7510,1.0,37.049,1111122 
COMPS,ioos:station:USF.COMPS:EGK:1,2009-02-01T13:30:00Z,27.6010,-82.7510,1.0,36.983,1111122 
COMPS,ioos:station:USF.COMPS:EGK:1,2009-02-01T13:36:00Z,27.6010,-82.7510,1.0,36.965,1111122 
COMPS,ioos:station:USF.COMPS:EGK:1,2009-02-01T13:42:00Z,27.6010,-82.7510,1.0,35.297,1111122 
COMPS,ioos:station:USF.COMPS:EGK:1,2009-02-01T13:48:00Z,27.6010,-82.7510,1.0,35.992,1111122 
COMPS,ioos:station:USF.COMPS:EGK:1,2009-02-01T13:54:00Z,27.6010,-82.7510,1.0,37.056,1111122 
COMPS,ioos:station:USF.COMPS:EGK:1,2009-02-01T14:00:00Z,27.6010,-82.7510,1.0,37.075,1111122 
COMPS,ioos:station:USF.COMPS:EGK:1,2009-02-01T14:06:00Z,27.6010,-82.7510,1.0,37.185,1111122 
COMPS,ioos:station:USF.COMPS:EGK:1,2009-02-01T14:12:00Z,27.6010,-82.7510,1.0,37.194,1111122 
COMPS,ioos:station:USF.COMPS:EGK:1,2009-02-01T14:18:00Z,27.6010,-82.7510,1.0,37.24,1111122 
COMPS,ioos:station:USF.COMPS:EGK:1,2009-02-01T14:24:00Z,27.6010,-82.7510,1.0,37.019,1111122 
COMPS,ioos:station:USF.COMPS:EGK:1,2009-02-01T14:30:00Z,27.6010,-82.7510,1.0,37.111,1111122 
COMPS,ioos:station:USF.COMPS:EGK:1,2009-02-01T14:36:00Z,27.6010,-82.7510,1.0,37.194,1111122 
COMPS,ioos:station:USF.COMPS:EGK:1,2009-02-01T14:42:00Z,27.6010,-82.7510,1.0,37.203,1111122 
COMPS,ioos:station:USF.COMPS:EGK:1,2009-02-01T14:48:00Z,27.6010,-82.7510,1.0,37.12,1111122 
COMPS,ioos:station:USF.COMPS:EGK:1,2009-02-01T14:54:00Z,27.6010,-82.7510,1.0,37.157,1111122 
COMPS,ioos:station:USF.COMPS:EGK:1,2009-02-01T15:00:00Z,27.6010,-82.7510,1.0,37.305,1111122 
COMPS,ioos:station:USF.COMPS:EGK:1,2009-02-01T15:06:00Z,27.6010,-82.7510,1.0,37.36,1111122 
COMPS,ioos:station:USF.COMPS:EGK:1,2009-02-01T15:12:00Z,27.6010,-82.7510,1.0,37.314,1111122 
COMPS,ioos:station:USF.COMPS:EGK:1,2009-02-01T15:18:00Z,27.6010,-82.7510,1.0,37.268,1111122 
COMPS,ioos:station:USF.COMPS:EGK:1,2009-02-01T15:24:00Z,27.6010,-82.7510,1.0,37.286,1111122 
COMPS,ioos:station:USF.COMPS:EGK:1,2009-02-01T15:30:00Z,27.6010,-82.7510,1.0,37.129,1111122 
COMPS,ioos:station:USF.COMPS:EGK:1,2009-02-01T15:36:00Z,27.6010,-82.7510,1.0,37.211,1111122 
COMPS,ioos:station:USF.COMPS:EGK:1,2009-02-01T15:42:00Z,27.6010,-82.7510,1.0,37.229,1111122 
COMPS,ioos:station:USF.COMPS:EGK:1,2009-02-01T15:48:00Z,27.6010,-82.7510,1.0,37.191,1111122 
COMPS,ioos:station:USF.COMPS:EGK:1,2009-02-01T15:54:00Z,27.6010,-82.7510,1.0,37.126,1111122 
COMPS,ioos:station:USF.COMPS:EGK:1,2009-02-01T16:00:00Z,27.6010,-82.7510,1.0,37.015,1111122 
COMPS,ioos:station:USF.COMPS:EGK:1,2009-02-01T16:06:00Z,27.6010,-82.7510,1.0,37.114,1111122 
COMPS,ioos:station:USF.COMPS:EGK:1,2009-02-01T16:12:00Z,27.6010,-82.7510,1.0,37.012,1111122 
COMPS,ioos:station:USF.COMPS:EGK:1,2009-02-01T16:18:00Z,27.6010,-82.7510,1.0,36.948,1111122 
COMPS,ioos:station:USF.COMPS:EGK:1,2009-02-01T16:24:00Z,27.6010,-82.7510,1.0,36.91,1111122 
COMPS,ioos:station:USF.COMPS:EGK:1,2009-02-01T16:30:00Z,27.6010,-82.7510,1.0,36.099,1111122 
COMPS,ioos:station:USF.COMPS:EGK:1,2009-02-01T16:36:00Z,27.6010,-82.7510,1.0,36.326,1111122 
COMPS,ioos:station:USF.COMPS:EGK:1,2009-02-01T16:42:00Z,27.6010,-82.7510,1.0,36.362,1111122 
COMPS,ioos:station:USF.COMPS:EGK:1,2009-02-01T16:48:00Z,27.6010,-82.7510,1.0,36.507,1111122 
COMPS,ioos:station:USF.COMPS:EGK:1,2009-02-01T16:54:00Z,27.6010,-82.7510,1.0,36.662,1111122 
COMPS,ioos:station:USF.COMPS:EGK:1,2009-02-01T17:00:00Z,27.6010,-82.7510,1.0,36.58,1111122 
COMPS,ioos:station:USF.COMPS:EGK:1,2009-02-01T17:06:00Z,27.6010,-82.7510,1.0,36.834,1111122 
COMPS,ioos:station:USF.COMPS:EGK:1,2009-02-01T17:12:00Z,27.6010,-82.7510,1.0,37.016,1111122 
COMPS,ioos:station:USF.COMPS:EGK:1,2009-02-01T17:18:00Z,27.6010,-82.7510,1.0,37.143,1111122 
COMPS,ioos:station:USF.COMPS:EGK:1,2009-02-01T17:24:00Z,27.6010,-82.7510,1.0,37.134,1111122 
COMPS,ioos:station:USF.COMPS:EGK:1,2009-02-01T17:30:00Z,27.6010,-82.7510,1.0,37.034,1111122 
COMPS,ioos:station:USF.COMPS:EGK:1,2009-02-01T17:36:00Z,27.6010,-82.7510,1.0,36.988,1111122 
COMPS,ioos:station:USF.COMPS:EGK:1,2009-02-01T17:42:00Z,27.6010,-82.7510,1.0,36.997,1111122 
COMPS,ioos:station:USF.COMPS:EGK:1,2009-02-01T17:48:00Z,27.6010,-82.7510,1.0,36.979,1111122 
COMPS,ioos:station:USF.COMPS:EGK:1,2009-02-01T17:54:00Z,27.6010,-82.7510,1.0,37.089,1111122 
COMPS,ioos:station:USF.COMPS:EGK:1,2009-02-01T18:00:00Z,27.6010,-82.7510,1.0,37.09,1111122 
COMPS,ioos:station:USF.COMPS:EGK:1,2009-02-01T18:06:00Z,27.6010,-82.7510,1.0,37.135,1111122 
COMPS,ioos:station:USF.COMPS:EGK:1,2009-02-01T18:12:00Z,27.6010,-82.7510,1.0,37.107,1111122 
COMPS,ioos:station:USF.COMPS:EGK:1,2009-02-01T18:18:00Z,27.6010,-82.7510,1.0,37.031,1111122 
COMPS,ioos:station:USF.COMPS:EGK:1,2009-02-01T18:24:00Z,27.6010,-82.7510,1.0,37.003,1111122 
COMPS,ioos:station:USF.COMPS:EGK:1,2009-02-01T18:30:00Z,27.6010,-82.7510,1.0,36.894,1111122 
COMPS,ioos:station:USF.COMPS:EGK:1,2009-02-01T18:36:00Z,27.6010,-82.7510,1.0,36.857,1111122 
COMPS,ioos:station:USF.COMPS:EGK:1,2009-02-01T18:42:00Z,27.6010,-82.7510,1.0,36.921,1111122 
COMPS,ioos:station:USF.COMPS:EGK:1,2009-02-01T18:48:00Z,27.6010,-82.7510,1.0,36.904,1111122 
COMPS,ioos:station:USF.COMPS:EGK:1,2009-02-01T18:54:00Z,27.6010,-82.7510,1.0,36.831,1111122 
COMPS,ioos:station:USF.COMPS:EGK:1,2009-02-01T19:00:00Z,27.6010,-82.7510,1.0,36.859,1111122 
COMPS,ioos:station:USF.COMPS:EGK:1,2009-02-01T19:06:00Z,27.6010,-82.7510,1.0,36.868,1111122 
COMPS,ioos:station:USF.COMPS:EGK:1,2009-02-01T19:12:00Z,27.6010,-82.7510,1.0,36.912,1111122 
COMPS,ioos:station:USF.COMPS:EGK:1,2009-02-01T19:18:00Z,27.6010,-82.7510,1.0,36.873,1111122 
COMPS,ioos:station:USF.COMPS:EGK:1,2009-02-01T19:24:00Z,27.6010,-82.7510,1.0,36.762,1111122 
COMPS,ioos:station:USF.COMPS:EGK:1,2009-02-01T19:30:00Z,27.6010,-82.7510,1.0,36.69,1111122 
COMPS,ioos:station:USF.COMPS:EGK:1,2009-02-01T19:36:00Z,27.6010,-82.7510,1.0,36.729,1111122 
COMPS,ioos:station:USF.COMPS:EGK:1,2009-02-01T19:42:00Z,27.6010,-82.7510,1.0,36.83,1111122 
COMPS,ioos:station:USF.COMPS:EGK:1,2009-02-01T19:48:00Z,27.6010,-82.7510,1.0,36.859,1111122 
COMPS,ioos:station:USF.COMPS:EGK:1,2009-02-01T19:54:00Z,27.6010,-82.7510,1.0,36.86,1111122 
COMPS,ioos:station:USF.COMPS:EGK:1,2009-02-01T20:00:00Z,27.6010,-82.7510,1.0,37.022,1111122 
COMPS,ioos:station:USF.COMPS:EGK:1,2009-02-01T20:06:00Z,27.6010,-82.7510,1.0,36.77,1111122 
COMPS,ioos:station:USF.COMPS:EGK:1,2009-02-01T20:12:00Z,27.6010,-82.7510,1.0,36.769,1111122 
COMPS,ioos:station:USF.COMPS:EGK:1,2009-02-01T20:18:00Z,27.6010,-82.7510,1.0,36.751,1111122 
COMPS,ioos:station:USF.COMPS:EGK:1,2009-02-01T20:24:00Z,27.6010,-82.7510,1.0,36.741,1111122 
COMPS,ioos:station:USF.COMPS:EGK:1,2009-02-01T20:30:00Z,27.6010,-82.7510,1.0,36.55,1111122 
COMPS,ioos:station:USF.COMPS:EGK:1,2009-02-01T20:36:00Z,27.6010,-82.7510,1.0,36.59,1111122 
COMPS,ioos:station:USF.COMPS:EGK:1,2009-02-01T20:42:00Z,27.6010,-82.7510,1.0,36.404,1111122 
COMPS,ioos:station:USF.COMPS:EGK:1,2009-02-01T20:48:00Z,27.6010,-82.7510,1.0,36.516,1111122 
COMPS,ioos:station:USF.COMPS:EGK:1,2009-02-01T20:54:00Z,27.6010,-82.7510,1.0,36.652,1111122 
COMPS,ioos:station:USF.COMPS:EGK:1,2009-02-01T21:00:00Z,27.6010,-82.7510,1.0,36.689,1111122 
COMPS,ioos:station:USF.COMPS:EGK:1,2009-02-01T21:06:00Z,27.6010,-82.7510,1.0,36.608,1111122 
COMPS,ioos:station:USF.COMPS:EGK:1,2009-02-01T21:12:00Z,27.6010,-82.7510,1.0,36.59,1111122 
COMPS,ioos:station:USF.COMPS:EGK:1,2009-02-01T21:18:00Z,27.6010,-82.7510,1.0,36.581,1111122 
COMPS,ioos:station:USF.COMPS:EGK:1,2009-02-01T21:24:00Z,27.6010,-82.7510,1.0,36.572,1111122 
COMPS,ioos:station:USF.COMPS:EGK:1,2009-02-01T21:30:00Z,27.6010,-82.7510,1.0,36.527,1111122 
COMPS,ioos:station:USF.COMPS:EGK:1,2009-02-01T21:36:00Z,27.6010,-82.7510,1.0,36.617,1111122 
COMPS,ioos:station:USF.COMPS:EGK:1,2009-02-01T21:42:00Z,27.6010,-82.7510,1.0,36.637,1111122 
COMPS,ioos:station:USF.COMPS:EGK:1,2009-02-01T21:48:00Z,27.6010,-82.7510,1.0,36.557,1111122 
COMPS,ioos:station:USF.COMPS:EGK:1,2009-02-01T21:54:00Z,27.6010,-82.7510,1.0,36.204,1111122 
COMPS,ioos:station:USF.COMPS:EGK:1,2009-02-01T22:00:00Z,27.6010,-82.7510,1.0,36.649,1111122 
COMPS,ioos:station:USF.COMPS:EGK:1,2009-02-01T22:06:00Z,27.6010,-82.7510,1.0,36.703,1111122 
COMPS,ioos:station:USF.COMPS:EGK:1,2009-02-01T22:12:00Z,27.6010,-82.7510,1.0,36.712,1111122 
COMPS,ioos:station:USF.COMPS:EGK:1,2009-02-01T22:18:00Z,27.6010,-82.7510,1.0,36.603,1111122 
COMPS,ioos:station:USF.COMPS:EGK:1,2009-02-01T22:24:00Z,27.6010,-82.7510,1.0,36.585,1111122 
COMPS,ioos:station:USF.COMPS:EGK:1,2009-02-01T22:30:00Z,27.6010,-82.7510,1.0,36.594,1111122 
COMPS,ioos:station:USF.COMPS:EGK:1,2009-02-01T22:36:00Z,27.6010,-82.7510,1.0,36.622,1111122 
COMPS,ioos:station:USF.COMPS:EGK:1,2009-02-01T22:42:00Z,27.6010,-82.7510,1.0,36.758,1111122 
COMPS,ioos:station:USF.COMPS:EGK:1,2009-02-01T22:48:00Z,27.6010,-82.7510,1.0,36.758,1111122 
COMPS,ioos:station:USF.COMPS:EGK:1,2009-02-01T22:54:00Z,27.6010,-82.7510,1.0,36.686,1111122 
COMPS,ioos:station:USF.COMPS:EGK:1,2009-02-01T23:00:00Z,27.6010,-82.7510,1.0,36.603,1111122 
COMPS,ioos:station:USF.COMPS:EGK:1,2009-02-01T23:06:00Z,27.6010,-82.7510,1.0,36.628,1111122 
COMPS,ioos:station:USF.COMPS:EGK:1,2009-02-01T23:12:00Z,27.6010,-82.7510,1.0,36.52,1111122 
COMPS,ioos:station:USF.COMPS:EGK:1,2009-02-01T23:18:00Z,27.6010,-82.7510,1.0,36.664,1111122 
COMPS,ioos:station:USF.COMPS:EGK:1,2009-02-01T23:24:00Z,27.6010,-82.7510,1.0,36.629,1111122 
COMPS,ioos:station:USF.COMPS:EGK:1,2009-02-01T23:30:00Z,27.6010,-82.7510,1.0,37.398,1111122 
COMPS,ioos:station:USF.COMPS:EGK:1,2009-02-01T23:36:00Z,27.6010,-82.7510,1.0,38.546,1111122 
COMPS,ioos:station:USF.COMPS:EGK:1,2009-02-01T23:42:00Z,27.6010,-82.7510,1.0,38.589,1111122 
COMPS,ioos:station:USF.COMPS:EGK:1,2009-02-01T23:48:00Z,27.6010,-82.7510,1.0,38.656,1111122 
COMPS,ioos:station:USF.COMPS:EGK:1,2009-02-01T23:54:00Z,27.6010,-82.7510,1.0,38.602,1111122 
COMPS,ioos:station:USF.COMPS:EGK:1,2009-02-02T00:00:00Z,27.6010,-82.7510,1.0,38.593,1111122 
COMPS,ioos:station:USF.COMPS:EGK:1,2009-02-02T00:06:00Z,27.6010,-82.7510,1.0,38.631,1111122 
COMPS,ioos:station:USF.COMPS:EGK:1,2009-02-02T00:12:00Z,27.6010,-82.7510,1.0,38.584,1111122 
COMPS,ioos:station:USF.COMPS:EGK:1,2009-02-02T00:18:00Z,27.6010,-82.7510,1.0,38.448,1111122 
COMPS,ioos:station:USF.COMPS:EGK:1,2009-02-02T00:24:00Z,27.6010,-82.7510,1.0,38.892,1111122 
COMPS,ioos:station:USF.COMPS:EGK:1,2009-02-02T00:30:00Z,27.6010,-82.7510,1.0,38.976,1111122 
COMPS,ioos:station:USF.COMPS:EGK:1,2009-02-02T00:36:00Z,27.6010,-82.7510,1.0,38.834,1111122 
COMPS,ioos:station:USF.COMPS:EGK:1,2009-02-02T00:42:00Z,27.6010,-82.7510,1.0,38.571,1111122 
COMPS,ioos:station:USF.COMPS:EGK:1,2009-02-02T00:48:00Z,27.6010,-82.7510,1.0,38.33,1111122 
COMPS,ioos:station:USF.COMPS:EGK:1,2009-02-02T00:54:00Z,27.6010,-82.7510,1.0,38.106,1111122 
COMPS,ioos:station:USF.COMPS:EGK:1,2009-02-02T01:00:00Z,27.6010,-82.7510,1.0,38.645,1111122 
COMPS,ioos:station:USF.COMPS:EGK:1,2009-02-02T01:06:00Z,27.6010,-82.7510,1.0,38.601,1111122 
COMPS,ioos:station:USF.COMPS:EGK:1,2009-02-02T01:12:00Z,27.6010,-82.7510,1.0,38.045,1111122 
COMPS,ioos:station:USF.COMPS:EGK:1,2009-02-02T01:18:00Z,27.6010,-82.7510,1.0,38.686,1111122 
COMPS,ioos:station:USF.COMPS:EGK:1,2009-02-02T01:24:00Z,27.6010,-82.7510,1.0,38.704,1111122 
COMPS,ioos:station:USF.COMPS:EGK:1,2009-02-02T01:30:00Z,27.6010,-82.7510,1.0,38.794,1111122 
COMPS,ioos:station:USF.COMPS:EGK:1,2009-02-02T01:36:00Z,27.6010,-82.7510,1.0,38.863,1111122 